Time,TemperatureF,DewpointF,PressureIn,WindDirection,WindDirectionDegrees,WindSpeedMPH,WindSpeedGustMPH,Humidity,HourlyPrecipIn,Conditions,Clouds,dailyrainin,SoftwareType,DateUTC
2013-05-18 00:01:00,53.0,-99.9,30.06,West,263,9.0,15.0,-999,-99.99,,,-99.99,,2013-05-18 07:01:00,
2013-05-18 00:12:00,53.0,-99.9,30.06,West,273,7.0,11.0,-999,-99.99,,,-99.99,,2013-05-18 07:12:00,
2013-05-18 00:22:00,53.0,-99.9,30.06,West,269,6.0,10.0,-999,-99.99,,,-99.99,,2013-05-18 07:22:00,
2013-05-18 00:32:00,52.0,-99.9,30.06,WSW,256,9.0,14.0,-999,-99.99,,,-99.99,,2013-05-18 07:32:00,
2013-05-18 00:43:00,52.0,-99.9,30.06,WSW,255,12.0,17.0,-999,-99.99,,,-99.99,,2013-05-18 07:43:00,
2013-05-18 00:53:00,52.0,-99.9,30.06,WSW,257,10.0,16.0,-999,-99.99,,,-99.99,,2013-05-18 07:53:00,
2013-05-18 01:02:00,52.0,-99.9,30.06,West,264,7.0,14.0,-999,-99.99,,,-99.99,,2013-05-18 08:02:00,
2013-05-18 01:11:00,52.0,-99.9,30.06,West,266,7.0,13.0,-999,-99.99,,,-99.99,,2013-05-18 08:11:00,
2013-05-18 01:21:00,52.0,-99.9,30.06,WSW,253,8.0,13.0,-999,-99.99,,,-99.99,,2013-05-18 08:21:00,
2013-05-18 01:33:00,52.0,-99.9,30.06,WSW,253,8.0,13.0,-999,-99.99,,,-99.99,,2013-05-18 08:33:00,
2013-05-18 01:42:00,53.0,-99.9,30.05,West,262,6.0,9.0,-999,-99.99,,,-99.99,,2013-05-18 08:42:00,
2013-05-18 01:52:00,53.0,-99.9,30.05,WSW,258,9.0,13.0,-999,-99.99,,,-99.99,,2013-05-18 08:52:00,
2013-05-18 02:02:00,53.0,-99.9,30.05,WSW,253,7.0,12.0,-999,-99.99,,,-99.99,,2013-05-18 09:02:00,
2013-05-18 02:12:00,53.0,-99.9,30.05,WSW,246,8.0,14.0,-999,-99.99,,,-99.99,,2013-05-18 09:12:00,
2013-05-18 02:22:00,53.0,-99.9,30.05,WSW,252,6.0,11.0,-999,-99.99,,,-99.99,,2013-05-18 09:22:00,
2013-05-18 02:33:00,53.0,-99.9,30.05,WSW,253,8.0,13.0,-999,-99.99,,,-99.99,,2013-05-18 09:33:00,
2013-05-18 02:43:00,53.0,-99.9,30.05,WSW,243,4.0,12.0,-999,-99.99,,,-99.99,,2013-05-18 09:43:00,
2013-05-18 02:53:00,53.0,-99.9,30.05,WSW,239,5.0,11.0,-999,-99.99,,,-99.99,,2013-05-18 09:53:00,
2013-05-18 03:03:00,53.0,-99.9,30.05,WSW,246,7.0,9.0,-999,-99.99,,,-99.99,,2013-05-18 10:03:00,
2013-05-18 03:12:00,53.0,-99.9,30.05,WSW,252,5.0,8.0,-999,-99.99,,,-99.99,,2013-05-18 10:12:00,
2013-05-18 03:23:00,53.0,-99.9,30.05,WSW,238,3.0,8.0,-999,-99.99,,,-99.99,,2013-05-18 10:23:00,
2013-05-18 03:33:00,53.0,-99.9,30.05,SW,230,2.0,4.0,-999,-99.99,,,-99.99,,2013-05-18 10:33:00,
2013-05-18 03:42:00,53.0,-99.9,30.05,SW,218,2.0,6.0,-999,-99.99,,,-99.99,,2013-05-18 10:42:00,
2013-05-18 03:53:00,53.0,-99.9,30.05,West,271,2.0,4.0,-999,-99.99,,,-99.99,,2013-05-18 10:53:00,
2013-05-18 04:03:00,53.0,-99.9,30.05,West,265,3.0,3.0,-999,-99.99,,,-99.99,,2013-05-18 11:03:00,
2013-05-18 04:12:00,52.0,-99.9,30.05,WSW,257,3.0,4.0,-999,-99.99,,,-99.99,,2013-05-18 11:12:00,
2013-05-18 04:22:00,52.0,-99.9,30.05,West,260,3.0,4.0,-999,-99.99,,,-99.99,,2013-05-18 11:22:00,
2013-05-18 04:33:00,53.0,-99.9,30.05,West,260,3.0,4.0,-999,-99.99,,,-99.99,,2013-05-18 11:33:00,
2013-05-18 04:42:00,53.0,-99.9,30.05,WSW,258,3.0,4.0,-999,-99.99,,,-99.99,,2013-05-18 11:42:00,
2013-05-18 04:52:00,53.0,-99.9,30.05,West,260,3.0,4.0,-999,-99.99,,,-99.99,,2013-05-18 11:52:00,
2013-05-18 05:02:00,52.0,-99.9,30.05,West,260,3.0,6.0,-999,-99.99,,,-99.99,,2013-05-18 12:02:00,
2013-05-18 05:12:00,52.0,-99.9,30.05,West,261,3.0,4.0,-999,-99.99,,,-99.99,,2013-05-18 12:12:00,
2013-05-18 05:23:00,52.0,-99.9,30.06,WSW,258,3.0,4.0,-999,-99.99,,,-99.99,,2013-05-18 12:23:00,
2013-05-18 05:33:00,52.0,-99.9,30.06,West,259,3.0,4.0,-999,-99.99,,,-99.99,,2013-05-18 12:33:00,
2013-05-18 05:42:00,52.0,-99.9,30.06,WSW,251,2.0,5.0,-999,-99.99,,,-99.99,,2013-05-18 12:42:00,
2013-05-18 05:52:00,53.0,-99.9,30.06,West,268,4.0,5.0,-999,-99.99,,,-99.99,,2013-05-18 12:52:00,
2013-05-18 06:01:00,52.0,-99.9,30.06,West,262,4.0,7.0,-999,-99.99,,,-99.99,,2013-05-18 13:01:00,
2013-05-18 06:12:00,52.0,-99.9,30.07,West,262,3.0,6.0,-999,-99.99,,,-99.99,,2013-05-18 13:12:00,
2013-05-18 06:21:00,52.0,-99.9,30.07,West,267,4.0,5.0,-999,-99.99,,,-99.99,,2013-05-18 13:21:00,
2013-05-18 06:33:00,52.0,-99.9,30.07,WSW,258,3.0,5.0,-999,-99.99,,,-99.99,,2013-05-18 13:33:00,
2013-05-18 06:43:00,52.0,-99.9,30.07,West,265,4.0,5.0,-999,-99.99,,,-99.99,,2013-05-18 13:43:00,
2013-05-18 06:53:00,52.0,-99.9,30.08,West,262,2.0,4.0,-999,-99.99,,,-99.99,,2013-05-18 13:53:00,
2013-05-18 07:04:00,53.0,-99.9,30.08,West,268,3.0,6.0,-999,-99.99,,,-99.99,,2013-05-18 14:04:00,
2013-05-18 07:12:00,53.0,-99.9,30.09,West,263,3.0,5.0,-999,-99.99,,,-99.99,,2013-05-18 14:12:00,
2013-05-18 07:22:00,53.0,-99.9,30.09,WNW,289,4.0,6.0,-999,-99.99,,,-99.99,,2013-05-18 14:22:00,
2013-05-18 07:33:00,53.0,-99.9,30.09,West,270,5.0,8.0,-999,-99.99,,,-99.99,,2013-05-18 14:33:00,
2013-05-18 07:42:00,53.0,-99.9,30.10,West,266,4.0,6.0,-999,-99.99,,,-99.99,,2013-05-18 14:42:00,
2013-05-18 07:54:00,53.0,-99.9,30.10,WSW,257,4.0,7.0,-999,-99.99,,,-99.99,,2013-05-18 14:54:00,
2013-05-18 08:03:00,53.0,-99.9,30.10,West,265,2.0,4.0,-999,-99.99,,,-99.99,,2013-05-18 15:03:00,
2013-05-18 08:13:00,54.0,-99.9,30.10,WNW,296,0.0,3.0,-999,-99.99,,,-99.99,,2013-05-18 15:13:00,
2013-05-18 08:23:00,55.0,-99.9,30.10,WNW,302,1.0,2.0,-999,-99.99,,,-99.99,,2013-05-18 15:23:00,
2013-05-18 08:33:00,56.0,-99.9,30.10,ESE,108,1.0,4.0,-999,-99.99,,,-99.99,,2013-05-18 15:33:00,
2013-05-18 08:43:00,55.0,-99.9,30.10,ESE,110,3.0,4.0,-999,-99.99,,,-99.99,,2013-05-18 15:43:00,
2013-05-18 08:54:00,55.0,-99.9,30.10,SE,134,4.0,5.0,-999,-99.99,,,-99.99,,2013-05-18 15:54:00,
2013-05-18 09:03:00,55.0,-99.9,30.11,SE,134,4.0,5.0,-999,-99.99,,,-99.99,,2013-05-18 16:03:00,
2013-05-18 09:13:00,55.0,-99.9,30.11,ESE,113,3.0,5.0,-999,-99.99,,,-99.99,,2013-05-18 16:13:00,
2013-05-18 09:22:00,55.0,-99.9,30.11,SE,124,5.0,6.0,-999,-99.99,,,-99.99,,2013-05-18 16:22:00,
2013-05-18 09:33:00,55.0,-99.9,30.11,SE,124,5.0,6.0,-999,-99.99,,,-99.99,,2013-05-18 16:33:00,
2013-05-18 09:42:00,55.0,-99.9,30.11,ESE,111,5.0,6.0,-999,-99.99,,,-99.99,,2013-05-18 16:42:00,
2013-05-18 09:52:00,55.0,-99.9,30.11,ESE,112,5.0,6.0,-999,-99.99,,,-99.99,,2013-05-18 16:52:00,
2013-05-18 10:03:00,55.0,-99.9,30.11,SE,128,7.0,8.0,-999,-99.99,,,-99.99,,2013-05-18 17:03:00,
2013-05-18 10:12:00,55.0,-99.9,30.11,ESE,117,6.0,8.0,-999,-99.99,,,-99.99,,2013-05-18 17:12:00,
2013-05-18 10:22:00,55.0,-99.9,30.11,East,91,6.0,8.0,-999,-99.99,,,-99.99,,2013-05-18 17:22:00,
2013-05-18 10:33:00,56.0,-99.9,30.11,East,93,7.0,8.0,-999,-99.99,,,-99.99,,2013-05-18 17:33:00,
2013-05-18 10:42:00,56.0,-99.9,30.11,East,82,6.0,7.0,-999,-99.99,,,-99.99,,2013-05-18 17:42:00,
2013-05-18 10:52:00,56.0,-99.9,30.11,East,82,4.0,6.0,-999,-99.99,,,-99.99,,2013-05-18 17:52:00,
2013-05-18 11:01:00,57.0,-99.9,30.12,ENE,65,2.0,4.0,-999,-99.99,,,-99.99,,2013-05-18 18:01:00,
2013-05-18 11:12:00,57.0,-99.9,30.12,ENE,75,3.0,4.0,-999,-99.99,,,-99.99,,2013-05-18 18:12:00,
2013-05-18 11:22:00,56.0,-99.9,30.11,East,85,6.0,7.0,-999,-99.99,,,-99.99,,2013-05-18 18:22:00,
2013-05-18 11:32:00,57.0,-99.9,30.12,ENE,73,3.0,5.0,-999,-99.99,,,-99.99,,2013-05-18 18:32:00,
2013-05-18 11:42:00,57.0,-99.9,30.11,NNE,25,2.0,3.0,-999,-99.99,,,-99.99,,2013-05-18 18:42:00,
2013-05-18 11:52:00,58.0,-99.9,30.11,NNE,25,4.0,6.0,-999,-99.99,,,-99.99,,2013-05-18 18:52:00,
2013-05-18 12:02:00,58.0,-99.9,30.11,NNE,20,4.0,5.0,-999,-99.99,,,-99.99,,2013-05-18 19:02:00,
2013-05-18 12:12:00,58.0,-99.9,30.11,North,1,4.0,4.0,-999,-99.99,,,-99.99,,2013-05-18 19:12:00,
2013-05-18 12:22:00,58.0,-99.9,30.12,NNW,343,4.0,5.0,-999,-99.99,,,-99.99,,2013-05-18 19:22:00,
2013-05-18 12:32:00,58.0,-99.9,30.11,North,354,2.0,4.0,-999,-99.99,,,-99.99,,2013-05-18 19:32:00,
2013-05-18 12:42:00,58.0,-99.9,30.11,North,353,3.0,4.0,-999,-99.99,,,-99.99,,2013-05-18 19:42:00,
2013-05-18 12:52:00,59.0,-99.9,30.11,North,354,3.0,4.0,-999,-99.99,,,-99.99,,2013-05-18 19:52:00,
2013-05-18 13:02:00,59.0,-99.9,30.11,North,349,2.0,3.0,-999,-99.99,,,-99.99,,2013-05-18 20:02:00,
2013-05-18 13:11:00,60.0,-99.9,30.11,North,352,3.0,4.0,-999,-99.99,,,-99.99,,2013-05-18 20:11:00,
2013-05-18 13:22:00,64.0,-99.9,30.11,West,263,6.0,12.0,-999,-99.99,,,-99.99,,2013-05-18 20:22:00,
2013-05-18 13:32:00,64.0,-99.9,30.11,SW,218,8.0,11.0,-999,-99.99,,,-99.99,,2013-05-18 20:32:00,
2013-05-18 13:42:00,64.0,-99.9,30.11,WSW,239,6.0,12.0,-999,-99.99,,,-99.99,,2013-05-18 20:42:00,
2013-05-18 13:52:00,65.0,-99.9,30.10,WSW,252,7.0,10.0,-999,-99.99,,,-99.99,,2013-05-18 20:52:00,
2013-05-18 14:01:00,63.0,-99.9,30.10,WSW,257,9.0,18.0,-999,-99.99,,,-99.99,,2013-05-18 21:01:00,
2013-05-18 14:12:00,65.0,-99.9,30.10,WSW,248,6.0,13.0,-999,-99.99,,,-99.99,,2013-05-18 21:12:00,
2013-05-18 14:22:00,64.0,-99.9,30.10,WSW,258,11.0,17.0,-999,-99.99,,,-99.99,,2013-05-18 21:22:00,
2013-05-18 14:33:00,65.0,-99.9,30.10,West,261,11.0,17.0,-999,-99.99,,,-99.99,,2013-05-18 21:33:00,
2013-05-18 14:44:00,65.0,-99.9,30.09,West,270,10.0,17.0,-999,-99.99,,,-99.99,,2013-05-18 21:44:00,
2013-05-18 14:53:00,65.0,-99.9,30.09,WSW,257,11.0,15.0,-999,-99.99,,,-99.99,,2013-05-18 21:53:00,
2013-05-18 15:03:00,66.0,-99.9,30.10,West,260,13.0,18.0,-999,-99.99,,,-99.99,,2013-05-18 22:03:00,
2013-05-18 15:13:00,65.0,-99.9,30.09,West,263,13.0,18.0,-999,-99.99,,,-99.99,,2013-05-18 22:13:00,
2013-05-18 15:23:00,66.0,-99.9,30.09,West,263,10.0,16.0,-999,-99.99,,,-99.99,,2013-05-18 22:23:00,
2013-05-18 15:33:00,65.0,-99.9,30.09,WSW,245,11.0,17.0,-999,-99.99,,,-99.99,,2013-05-18 22:33:00,
2013-05-18 15:42:00,66.0,-99.9,30.09,WSW,251,11.0,16.0,-999,-99.99,,,-99.99,,2013-05-18 22:42:00,
2013-05-18 15:53:00,65.0,-99.9,30.09,WSW,252,13.0,18.0,-999,-99.99,,,-99.99,,2013-05-18 22:53:00,
2013-05-18 16:02:00,66.0,-99.9,30.09,West,259,14.0,19.0,-999,-99.99,,,-99.99,,2013-05-18 23:02:00,
2013-05-18 16:12:00,66.0,-99.9,30.09,WSW,257,14.0,19.0,-999,-99.99,,,-99.99,,2013-05-18 23:12:00,
2013-05-18 16:22:00,66.0,-99.9,30.08,WSW,250,10.0,18.0,-999,-99.99,,,-99.99,,2013-05-18 23:22:00,
2013-05-18 16:32:00,66.0,-99.9,30.08,WSW,247,11.0,16.0,-999,-99.99,,,-99.99,,2013-05-18 23:32:00,
2013-05-18 16:42:00,66.0,-99.9,30.08,WSW,254,8.0,14.0,-999,-99.99,,,-99.99,,2013-05-18 23:42:00,
2013-05-18 16:53:00,66.0,-99.9,30.08,WSW,246,8.0,13.0,-999,-99.99,,,-99.99,,2013-05-18 23:53:00,
2013-05-18 17:02:00,65.0,-99.9,30.08,WSW,255,9.0,17.0,-999,-99.99,,,-99.99,,2013-05-19 00:02:00,
2013-05-18 17:12:00,65.0,-99.9,30.08,West,259,12.0,17.0,-999,-99.99,,,-99.99,,2013-05-19 00:12:00,
2013-05-18 17:22:00,64.0,-99.9,30.08,WSW,257,9.0,16.0,-999,-99.99,,,-99.99,,2013-05-19 00:22:00,
2013-05-18 17:32:00,64.0,-99.9,30.07,WSW,248,9.0,17.0,-999,-99.99,,,-99.99,,2013-05-19 00:32:00,
2013-05-18 17:42:00,63.0,-99.9,30.07,West,259,11.0,15.0,-999,-99.99,,,-99.99,,2013-05-19 00:42:00,
2013-05-18 17:52:00,63.0,-99.9,30.07,WSW,255,10.0,17.0,-999,-99.99,,,-99.99,,2013-05-19 00:52:00,
2013-05-18 18:01:00,64.0,-99.9,30.07,WSW,252,11.0,15.0,-999,-99.99,,,-99.99,,2013-05-19 01:01:00,
2013-05-18 18:11:00,64.0,-99.9,30.07,WSW,252,8.0,13.0,-999,-99.99,,,-99.99,,2013-05-19 01:11:00,
2013-05-18 18:22:00,64.0,-99.9,30.07,WSW,256,8.0,13.0,-999,-99.99,,,-99.99,,2013-05-19 01:22:00,
2013-05-18 18:32:00,64.0,-99.9,30.07,WSW,251,8.0,12.0,-999,-99.99,,,-99.99,,2013-05-19 01:32:00,
2013-05-18 18:42:00,64.0,-99.9,30.07,WSW,256,11.0,15.0,-999,-99.99,,,-99.99,,2013-05-19 01:42:00,
2013-05-18 18:52:00,65.0,-99.9,30.06,WSW,253,11.0,14.0,-999,-99.99,,,-99.99,,2013-05-19 01:52:00,
2013-05-18 19:02:00,65.0,-99.9,30.06,West,260,11.0,13.0,-999,-99.99,,,-99.99,,2013-05-19 02:02:00,
2013-05-18 19:11:00,64.0,-99.9,30.06,WSW,255,11.0,15.0,-999,-99.99,,,-99.99,,2013-05-19 02:11:00,
2013-05-18 19:22:00,64.0,-99.9,30.06,SW,232,6.0,15.0,-999,-99.99,,,-99.99,,2013-05-19 02:22:00,
2013-05-18 19:32:00,62.0,-99.9,30.06,WSW,250,8.0,16.0,-999,-99.99,,,-99.99,,2013-05-19 02:32:00,
2013-05-18 19:42:00,61.0,-99.9,30.06,WSW,252,12.0,16.0,-999,-99.99,,,-99.99,,2013-05-19 02:42:00,
2013-05-18 19:52:00,61.0,-99.9,30.06,WSW,249,8.0,15.0,-999,-99.99,,,-99.99,,2013-05-19 02:52:00,
2013-05-18 20:01:00,61.0,-99.9,30.06,WSW,253,12.0,17.0,-999,-99.99,,,-99.99,,2013-05-19 03:01:00,
2013-05-18 20:11:00,60.0,-99.9,30.06,WSW,252,12.0,16.0,-999,-99.99,,,-99.99,,2013-05-19 03:11:00,
2013-05-18 20:22:00,60.0,-99.9,30.06,WSW,247,10.0,15.0,-999,-99.99,,,-99.99,,2013-05-19 03:22:00,
2013-05-18 20:33:00,61.0,-99.9,30.06,WSW,247,8.0,13.0,-999,-99.99,,,-99.99,,2013-05-19 03:33:00,
2013-05-18 20:43:00,60.0,-99.9,30.06,WSW,249,8.0,12.0,-999,-99.99,,,-99.99,,2013-05-19 03:43:00,
2013-05-18 20:53:00,61.0,-99.9,30.07,WSW,240,8.0,11.0,-999,-99.99,,,-99.99,,2013-05-19 03:53:00,
2013-05-18 21:03:00,60.0,-99.9,30.07,WSW,251,9.0,13.0,-999,-99.99,,,-99.99,,2013-05-19 04:03:00,
2013-05-18 21:13:00,60.0,-99.9,30.07,WSW,245,8.0,12.0,-999,-99.99,,,-99.99,,2013-05-19 04:13:00,
2013-05-18 21:23:00,61.0,-99.9,30.06,SSE,167,4.0,5.0,-999,-99.99,,,-99.99,,2013-05-19 04:23:00,
2013-05-18 21:33:00,61.0,-99.9,30.07,South,174,3.0,7.0,-999,-99.99,,,-99.99,,2013-05-19 04:33:00,
2013-05-18 21:42:00,61.0,-99.9,30.07,ENE,65,3.0,4.0,-999,-99.99,,,-99.99,,2013-05-19 04:42:00,
2013-05-18 21:53:00,61.0,-99.9,30.07,East,95,4.0,4.0,-999,-99.99,,,-99.99,,2013-05-19 04:53:00,
2013-05-18 22:02:00,60.0,-99.9,30.08,North,1,1.0,1.0,-999,-99.99,,,-99.99,,2013-05-19 05:02:00,
2013-05-18 22:12:00,61.0,-99.9,30.08,WSW,239,1.0,3.0,-999,-99.99,,,-99.99,,2013-05-19 05:12:00,
2013-05-18 22:22:00,62.0,-99.9,30.08,SSW,206,3.0,5.0,-999,-99.99,,,-99.99,,2013-05-19 05:22:00,
2013-05-18 22:32:00,62.0,-99.9,30.09,WSW,257,3.0,7.0,-999,-99.99,,,-99.99,,2013-05-19 05:32:00,
2013-05-18 22:42:00,61.0,-99.9,30.08,West,273,2.0,6.0,-999,-99.99,,,-99.99,,2013-05-19 05:42:00,
2013-05-18 22:52:00,62.0,-99.9,30.08,WSW,244,3.0,7.0,-999,-99.99,,,-99.99,,2013-05-19 05:52:00,
2013-05-18 23:02:00,62.0,-99.9,30.08,SW,219,3.0,6.0,-999,-99.99,,,-99.99,,2013-05-19 06:02:00,
2013-05-18 23:12:00,62.0,-99.9,30.08,SW,232,3.0,8.0,-999,-99.99,,,-99.99,,2013-05-19 06:12:00,
2013-05-18 23:21:00,61.0,-99.9,30.08,SSE,150,4.0,6.0,-999,-99.99,,,-99.99,,2013-05-19 06:21:00,
2013-05-18 23:32:00,61.0,-99.9,30.08,South,175,2.0,6.0,-999,-99.99,,,-99.99,,2013-05-19 06:32:00,
2013-05-18 23:42:00,61.0,-99.9,30.08,SW,221,1.0,4.0,-999,-99.99,,,-99.99,,2013-05-19 06:42:00,
2013-05-18 23:52:00,60.0,-99.9,30.09,WSW,238,7.0,10.0,-999,-99.99,,,-99.99,,2013-05-19 06:52:00,